Location: *
(44.3683°N, 6.6958°E)
Time: 07:04:58
(UTC+00:00)

Resurs 01 Rocket - Pass Details

Date: 14 October 2019
Orbit: 634 x 645 km, 98.0° (Epoch: 17 November)

Event Time Altitude Azimuth Distance (km) Brightness Sun altitude
Exits shadow 19:35:40 14° 1° (N) 1,780 4.1 -29.8°
Drops below altitude 10° 19:36:22 10° 358° (N) 2,053 4.4 -29.9°
Sets 19:38:38 0° 353° (N) 2,967 5.4 -30.3°
